SCP
0 0 0 0 0 0 0 0 0 0 0 0 0 0 0 0 0 0 0 0 0 0 0 0 0 0 0 0 0 0 0 0 0 0 0 0 0 0 0 0 0 0 0
0 0 0 0 0 0 0 0 0 0 0 0 0 0 0 0 0 0 0 0 0 0 0 0 0 0 0 0 0 0 0 0 0 0 0 0 0 0 0 0 0 0 0
0 0 0 0 0 0 0 0 0 0 0 0 0 0 0 0 0 0 0 0 0 0 0 0 0 0 0 0 0 0 0 0 0 0 0 0 0 0 0 0 0 0 0
0 0 0 0 0 0 0 0 0 0 0 0 0 0 0 0 0 0 0 0 0 0 0 0 0 0 0 0 0 0 0 0 0 0 0 0 0 0 0 0 0 0 0
0 0 0 0 0 0 0 0 0 0 0 0 0 0 0 0 0 0 0 0 0 0 0 0 0 0 0 0 0 0 0 0 0 0 0 0 0 0 0 0 0 0 0
0 0 0 0 0 0 0 0 0 0 0 0 0 0 0 0 0 0 0 0 0 0 0 0 0 0 0 0 0 0 0 0 0 0 0 0 0 0 0 0 0 0 0
0 0 0 0 0 0 0 0 0 0 0 0 0 0 0 0 0 0 0 0 0 0 0 0 0 0 0 0 0 0 0 0 0 0 0 0 0 0 0 0 0 0 0
0 0 0 0 0 0 0 0 0 0 0 0 0 0 0 0 0 0 0 0 0 0 0 0 0 0 0 0 0 0 0 0 0 0 0 0 0 0 0 0 0 0 0
0 0 0 0 0 0 0 0 0 0 0 0 0 0 0 0 0 0 0 0 0 0 0 0 0 0 0 0 0 0 0 0 0 0 0 0 0 0 0 0 0 0 0
0 0 0 0 0 0 0 0 0 0 0 0 0 0 0 0 0 0 0 0 0 0 0 0 0 0 0 0 0 0 0 0 0 0 0 0 0 0 0 0 0 0 0
0 0 0 0 0 0 0 0 0 0 0 0 0 0 0 0 0 0 0 0 0 0 0 0 0 0 0 0 0 0 0 0 0 0 0 0 0 0 0 0 0 0 0
0 0 0 0 0 0 0 0 0 0 0 0 0 0 0 0 0 0 0 0 0 0 0 0 0 0 0 0 0 0 0 0 0 0 0 0 0 0 0 0 0 0 0
0 0 0 0 0 0 0 0 0 0 0 0 0 0 0 0 0 0 0 0 0 0 0 0 0 0 0 0 0 0 0 0 0 0 0 0 0 0 0 0 0 0 0
0 0 0 0 0 0 0 0 0 0 0 0 0 0 0 0 0 0 0 0 0 0 0 0 0 0 0 0 0 0 0 0 0 0 0 0 0 0 0 0 0 0 0
0 0 0 0 0 0 0 0 0 0 0 0 0 0 0 0 0 0 0 0 0 0 0 0 0 0 0 0 0 0 0 0 0 0 0 0 0 0 0 0 0 0 0
0 0 0 0 0 0 0 0 0 0 0 0 0 0 0 0 0 0 0 0 0 0 0 0 0 0 0 0 0 0 0 0 0 0 0 0 0 0 0 0 0 0 0
0 0 0 0 0 0 0 0 0 0 0 0 0 0 0 0 0 0 0 0 0 0 0 0 0 0 0 0 0 0 0 0 0 0 0 0 0 0 0 0 0 0 0
0 0 0 0 0 0 0 0 0 0 0 0 0 0 0 0 0 0 0 0 0 0 0 0 0 0 0 0 0 0 0 0 0 0 0 0 0 0 0 0 0 0 0
0 0 0 0 0 0 0 0 0 0 0 0 0 0 0 0 0 0 0 0 0 0 0 0 0 0 0 0 0 0 0 0 0 0 0 0 0 0 0 0 0 0 0
0 0 0 0 0 0 0 0 0 0 0 0 0 0 0 0 0 0 0 0 0 0 0 0 0 0 0 0 0 0 0 0 0 0 0 0 0 0 0 0 0 0 0
0 0 0 0 0 0 0 0 0 0 0 0 0 0 0 0 0 0 0 0 0 0 0 0 0 0 0 0 0 0 0 0 0 0 0 0 0 0 0 0 0 0 0
0 0 0 0 0 0 0 0 0 0 0 0 0 0 0 0 0 0 0 0 0 0 0 0 0 0 0 0 0 0 0 0 0 0 0 0 0 0 0 0 0 0 0
0 0 0 0 0 0 0 0 0 0 0 0 0 0 0 0 0 0 0 0 0 0 0 0 0 0 0 0 0 0 0 0 0 0 0 0 0 0 0 0 0 0 0
0 0 0 0 0 0 0 0 0 0 0 0 0 0 0 0 0 0 0 0 0 0 0 0 0 0 0 0 0 0 0 0 0 0 0 0 0 0 0 0 0 0 0
0 0 0 0 0 0 0 0 0 0 0 0 0 0 0 0 0 0 0 0 0 0 0 0 0 0 0 0 0 0 0 0 0 0 0 0 0 0 0 0 0 0 0
0 0 0 0 0 0 0 0 0 0 0 0 0 0 0 0 0 0 0 0 0 0 0 0 0 0 0 0 0 0 0 0 0 0 0 0 0 0 0 0 0 0 0
Wind_Speed
1 2 5 7 9 9 10 11 11 11 11 11 12 11 12 12 12 12 11 11 11 11 11 11 12 12 11 11 10 10 10 11 11 10 10 10 10 9 9 9 7 5 8
2 0 4 7 8 9 10 11 11 11 11 11 12 12 12 12 12 12 11 11 11 11 11 11 11 11 10 10 10 10 10 10 11 10 10 9 9 9 9 8 7 5 8
3 1 3 7 8 10 11 11 11 11 11 12 12 12 12 12 12 11 11 11 11 11 11 11 11 10 10 10 10 10 10 10 10 10 9 5 6 9 9 9 8 8 8
4 2 4 8 9 10 11 11 11 11 12 12 12 12 13 13 12 12 11 11 11 11 11 11 11 10 10 10 10 10 10 10 10 10 5 4 5 9 10 10 9 9 8
4 3 4 9 9 10 10 11 11 11 12 12 12 12 13 13 13 12 12 12 12 12 12 11 11 10 10 10 10 11 10 10 11 9 5 4 4 9 10 9 9 8 8
4 3 5 9 9 9 10 10 11 11 12 12 12 12 12 12 12 13 13 13 13 12 12 11 11 11 10 10 10 10 10 11 9 5 4 4 3 8 9 9 9 8 8
4 3 4 8 8 9 9 9 10 11 11 11 11 12 12 12 12 12 12 12 12 11 11 11 10 10 10 10 10 10 11 11 7 5 4 3 5 9 9 9 8 8 8
5 4 4 8 8 8 8 8 10 10 10 11 11 11 11 11 11 12 11 11 11 11 10 10 10 10 9 9 10 10 10 10 8 6 4 3 8 10 10 9 8 8 8
5 4 3 3 4 6 8 9 10 10 10 11 11 10 11 11 11 11 11 11 11 10 10 10 9 9 9 9 10 11 11 11 6 3 4 3 9 10 10 9 8 8 8
5 4 3 3 3 3 5 9 10 9 9 10 10 10 10 10 9 10 9 9 10 10 10 10 10 10 10 10 10 11 11 9 5 4 3 4 10 10 10 10 9 9 8
4 3 3 2 3 3 4 7 7 7 8 7 7 9 7 4 4 5 7 8 9 10 10 10 10 10 10 9 10 11 9 3 4 3 2 7 9 10 10 10 9 9 9
3 2 2 2 2 3 4 4 3 3 3 3 3 4 3 2 3 4 6 8 9 9 9 10 10 9 7 4 6 8 3 4 3 2 3 8 8 9 9 9 8 9 9
4 3 3 3 3 3 2 2 2 2 2 3 3 3 3 3 3 3 3 4 5 6 5 6 6 4 4 3 3 3 3 3 2 2 3 7 8 8 8 8 7 8 8
4 3 3 3 3 3 3 2 2 2 2 2 2 3 3 2 3 2 2 3 3 2 3 3 3 4 4 4 3 4 3 3 2 2 3 7 7 7 8 8 8 8 8
4 3 4 4 4 3 3 2 3 2 2 2 2 2 3 2 2 2 2 2 3 2 3 3 3 4 4 4 3 4 3 3 3 3 3 7 7 7 8 8 8 8 8
4 4 4 4 4 4 3 2 2 2 2 3 3 3 3 3 3 2 2 3 3 2 3 3 3 3 3 3 3 3 3 3 3 3 2 4 7 7 7 7 8 8 7
5 4 4 5 4 4 4 3 3 2 3 3 2 3 3 3 3 3 2 2 2 2 3 3 4 3 4 4 3 3 2 2 2 2 2 2 3 5 6 7 7 7 7
5 5 4 5 5 4 4 3 3 3 3 3 2 2 4 4 3 3 3 2 2 3 3 3 3 3 3 3 3 2 2 2 2 2 2 2 2 3 4 6 6 6 6
6 5 4 5 5 4 4 4 3 3 3 2 3 3 3 4 4 3 3 2 3 3 3 3 3 2 3 3 2 2 2 2 2 2 3 3 2 2 2 4 6 6 5
5 5 5 5 5 5 4 3 3 3 3 2 2 2 3 3 4 3 3 3 3 3 3 3 2 2 2 2 2 3 2 2 2 2 2 2 2 3 3 3 3 4 4
5 5 5 5 4 4 3 2 2 2 1 2 2 2 3 3 3 3 2 2 3 3 2 2 2 3 3 2 3 3 3 3 3 2 2 2 3 3 3 3 2 2 2
6 5 5 5 4 4 3 2 2 2 1 1 1 2 2 3 3 3 3 2 2 2 3 3 3 2 2 2 2 2 3 4 4 4 3 2 2 2 3 3 2 2 2
6 6 6 5 4 4 4 3 3 3 2 2 2 2 2 2 2 2 2 2 2 2 2 2 2 3 1 2 2 2 2 1 3 3 3 3 3 2 2 2 3 3 3
6 5 5 5 5 4 4 4 4 3 2 1 0 0 1 2 2 2 2 2 2 1 1 1 2 1 2 1 1 1 1 2 1 2 3 3 3 3 2 2 2 2 2
5 5 5 5 5 4 4 5 5 3 1 1 1 1 2 2 2 1 1 2 1 1 1 1 2 1 1 1 0 0 1 1 1 1 2 3 3 2 2 2 2 2 2
4 4 5 6 5 4 4 4 5 4 3 2 1 1 1 1 1 2 1 1 1 1 0 1 1 1 1 1 1 1 1 1 0 1 1 1 2 2 2 1 1 1 2
Wind_Direction
309 310 45 61 65 66 69 72 73 74 74 74 74 73 75 74 73 73 74 74 77 80 80 81 85 88 87 86 84 81 80 79 79 78 77 77 79 81 79 79 79 74 84
186 309 68 69 68 68 70 72 73 75 76 76 77 77 76 75 74 73 73 74 77 81 82 81 81 83 84 83 81 79 79 78 77 76 71 69 73 75 76 78 83 85 84
140 98 80 77 74 71 71 73 74 76 78 78 77 77 75 73 72 72 72 75 78 81 82 80 78 80 80 78 77 76 75 73 72 73 66 55 69 73 73 75 77 79 81
127 105 91 83 78 77 75 74 75 78 79 77 76 76 73 71 70 69 70 75 78 81 80 77 75 75 75 74 74 73 71 69 71 68 56 50 62 71 71 72 72 72 76
113 100 97 84 81 80 79 76 76 79 80 79 78 77 74 72 70 69 71 73 77 79 78 75 74 72 71 71 71 69 67 67 71 63 53 48 56 72 71 70 69 68 71
103 90 94 86 82 81 80 79 79 81 82 81 80 78 76 73 71 72 73 75 77 77 77 76 74 72 72 72 69 68 70 72 71 62 55 49 57 74 73 71 69 67 67
104 90 94 89 85 84 84 84 83 83 84 83 81 79 77 74 73 72 73 74 75 75 76 75 73 71 72 73 70 70 74 77 72 65 56 53 69 74 72 70 69 68 67
114 96 92 89 86 86 89 94 91 88 85 83 81 80 78 76 74 73 73 74 73 72 71 72 72 71 71 72 72 74 75 75 74 70 55 54 73 71 68 65 68 71 69
104 94 72 73 76 79 86 99 97 89 84 82 80 79 76 73 73 73 72 72 72 71 71 70 68 69 70 71 70 70 76 76 63 60 67 59 74 70 65 65 70 73 71
97 94 80 56 41 42 75 96 93 88 84 81 78 77 74 70 70 72 69 66 65 67 70 69 65 64 63 63 64 68 73 70 53 50 47 69 72 70 65 66 74 74 74
93 94 91 76 55 50 69 85 86 85 79 77 72 74 71 54 52 63 66 63 60 59 60 62 62 62 59 57 60 62 66 56 55 50 51 73 73 70 66 66 70 74 71
115 115 101 92 76 63 77 70 61 70 64 60 61 62 55 55 49 57 54 55 54 52 50 52 54 56 53 46 53 58 56 55 52 45 65 74 71 69 67 66 68 70 67
142 127 111 104 89 80 76 74 57 55 55 55 53 58 59 52 47 41 36 34 34 39 37 39 39 43 53 57 51 52 57 59 47 35 56 71 69 69 69 65 67 68 69
120 120 118 111 95 88 85 76 70 65 61 56 51 61 70 61 52 41 38 29 30 33 42 42 44 45 49 52 58 59 56 57 46 29 48 62 61 62 65 66 66 69 69
125 121 125 121 111 99 86 72 72 66 71 68 56 51 69 76 69 55 43 38 35 40 50 51 50 54 52 48 55 63 60 59 52 45 38 52 52 56 62 62 62 66 67
133 123 118 118 114 101 91 84 81 74 69 65 55 52 68 78 79 68 53 44 37 39 46 56 58 63 59 58 51 49 55 57 49 46 35 40 48 54 60 63 63 63 67
141 127 118 121 109 104 98 89 84 78 73 65 57 50 61 73 75 71 61 50 37 39 50 55 51 54 52 48 42 38 48 47 47 43 38 29 30 45 59 63 61 59 63
133 127 124 123 114 109 99 92 84 72 70 65 61 55 56 63 68 66 63 52 45 47 51 61 52 50 42 38 29 25 37 40 40 40 42 31 25 27 44 58 58 54 54
139 133 121 119 119 118 104 94 86 75 67 61 57 52 51 58 66 72 66 52 56 56 48 58 59 68 57 40 38 36 28 34 32 48 43 33 29 27 28 42 46 44 44
136 127 120 115 114 114 101 88 73 63 54 50 53 52 53 57 63 72 69 51 55 64 51 53 60 55 60 48 47 38 20 19 35 39 42 34 26 29 33 28 26 24 28
131 128 126 122 120 116 110 110 100 84 60 45 46 55 59 58 61 68 66 59 58 70 72 77 69 58 41 44 56 24 8 13 26 32 33 38 35 31 31 23 16 3 352
148 145 139 138 139 132 134 138 133 132 115 88 41 41 51 58 58 72 73 72 68 72 65 66 73 70 43 40 73 63 11 355 358 10 17 30 29 28 25 20 13 12 359
151 159 156 153 147 134 124 106 86 67 45 37 30 20 17 50 60 68 79 80 73 82 88 79 87 92 72 3 47 104 113 278 318 336 6 20 22 28 12 7 26 19 13
165 160 155 153 146 139 132 128 128 126 131 189 195 13 15 38 54 65 81 85 83 81 89 78 80 90 109 59 354 29 129 153 159 316 336 1 7 18 6 17 26 17 7
159 154 157 146 140 142 140 139 135 129 142 141 86 57 24 15 29 48 90 96 88 81 78 66 65 72 95 118 101 31 44 49 81 156 294 328 348 356 357 8 22 22 15
143 140 149 149 149 151 145 143 145 147 146 133 115 81 16 354 356 13 56 88 100 93 89 90 83 85 75 83 86 91 113 119 215 152 197 296 319 323 344 2 12 12 9